Theta_e
317 316 315 315 314 313 313 312 312 311 310 308 306 306 297 294 297 305 310 315 309 299 293 303 301 297 296 300 300 300 300 300 299 298 297 297 296 296 297 298 296 297 296 295 294 294 293 295 293 295 297 297 299 300 298 298 299 298 296 300 300 327 296 292 294 293 295 299 299 303 304 301 299 297 299 301 299 300 300 295 296 296 298 298 297 297 300
317 316 315 315 313 312 313 312 312 312 310 306 306 300 297 298 298 304 312 314 307 301 297 295 293 295 301 301 300 300 301 298 297 295 294 294 295 295 296 297 298 299 297 295 296 297 291 295 295 295 297 300 303 300 298 302 301 298 298 297 303 295 297 293 289 287 289 292 295 301 305 301 297 297 301 302 300 297 300 299 300 299 298 298 296 292 300
317 316 316 315 313 312 312 312 312 312 311 309 305 304 302 301 303 304 309 317 308 302 297 295 293 297 296 296 300 301 299 298 298 297 295 298 294 294 294 297 297 296 296 296 297 298 293 293 297 295 296 297 302 302 299 307 312 312 309 320 304 297 297 294 290 286 282 284 283 288 291 296 297 303 311 312 310 298 297 296 297 292 296 298 294 296 302
317 316 316 315 313 313 312 312 312 312 310 308 308 303 302 299 295 299 305 310 305 305 301 300 300 297 299 299 300 298 295 296 297 295 295 295 296 294 296 296 296 295 296 295 296 297 298 295 295 295 295 297 300 302 300 309 313 322 323 315 308 297 300 296 293 289 288 291 293 296 300 303 303 307 310 310 310 306 298 294 294 291 292 296 300 304 309
318 317 316 315 314 313 312 312 312 312 310 309 306 304 302 304 301 301 299 306 304 305 304 307 305 303 303 296 298 297 295 295 295 297 295 297 297 295 296 297 297 294 295 294 295 296 297 297 296 296 297 297 299 301 303 301 319 319 316 319 304 299 295 298 296 296 298 303 301 307 310 306 306 307 309 312 311 301 296 294 292 296 298 292 302 307 311
318 318 318 316 314 313 313 312 312 311 309 308 306 307 307 299 303 307 309 299 293 301 300 308 307 309 306 299 298 295 295 294 294 296 297 296 296 296 297 294 295 295 296 294 294 295 294 294 294 296 297 295 297 300 301 300 311 309 302 308 304 298 293 298 300 299 306 306 306 307 307 308 309 311 312 311 312 312 308 308 309 300 294 291 305 313 314
319 319 318 317 314 314 314 313 311 310 308 307 307 302 304 307 306 308 313 305 304 302 305 312 310 303 303 299 303 296 295 294 292 294 294 294 295 294 292 293 294 296 297 294 292 294 289 291 294 294 295 296 295 295 296 300 299 299 299 300 305 299 296 300 299 298 304 306 307 308 304 306 307 309 312 314 314 313 314 313 313 310 310 313 315 315 315
319 319 318 317 315 314 315 313 312 310 308 306 305 304 303 301 302 301 309 309 307 308 308 308 303 300 306 297 297 298 295 295 295 295 295 293 295 295 295 295 295 296 296 292 291 295 293 294 293 296 295 292 296 295 295 295 298 298 299 300 302 298 297 306 297 296 299 304 307 307 305 303 304 307 309 312 314 315 315 315 316 317 316 317 316 315 314
319 319 318 317 315 314 315 314 313 310 309 303 304 303 304 305 306 307 304 299 299 307 307 304 301 297 297 298 300 303 299 298 299 295 297 295 293 296 295 295 295 296 294 294 294 295 296 295 297 298 293 293 297 294 294 296 297 297 298 299 301 301 297 300 296 293 297 302 302 303 303 303 305 306 307 309 311 310 313 313 315 313 312 315 315 313 313
319 319 318 317 315 314 315 314 313 310 309 304 299 298 304 305 306 309 305 299 306 302 303 301 299 296 297 302 302 301 301 302 298 294 297 297 295 295 298 295 294 293 293 294 296 296 299 299 296 297 295 296 296 297 298 295 297 295 296 297 298 298 298 296 293 290 292 301 303 300 299 298 300 302 305 309 311 314 315 316 318 316 317 313 310 312 319
319 319 318 317 316 315 316 315 314 311 311 305 302 300 304 304 303 307 303 299 296 298 301 300 300 305 307 309 306 307 304 303 300 294 294 297 297 297 298 295 292 291 292 296 299 297 299 297 296 294 295 294 296 297 299 299 300 296 295 297 298 299 298 295 297 290 290 298 299 300 296 292 294 308 311 311 310 311 309 309 312 317 319 315 319 319 323
318 319 318 317 316 315 315 316 314 312 312 310 309 305 307 309 308 307 300 296 295 300 302 299 301 305 308 309 309 307 307 306 302 300 296 296 297 299 298 296 294 294 298 301 300 299 300 301 299 299 299 299 298 299 299 299 298 303 296 296 294 299 296 295 295 291 291 294 295 292 287 289 303 306 310 313 310 311 311 311 313 313 317 321 320 322 322
318 319 318 317 316 315 315 316 314 312 312 313 310 304 308 309 307 307 302 296 296 296 298 298 307 309 309 309 308 308 308 307 304 302 297 297 297 296 297 298 296 299 301 297 299 297 295 295 293 294 296 296 296 296 299 297 298 299 297 297 298 294 292 294 293 294 293 290 291 286 287 297 303 303 305 309 307 306 307 308 311 314 315 317 318 321 323
318 319 318 317 316 315 315 316 315 315 312 311 310 308 308 308 305 305 305 300 299 300 304 302 300 304 308 308 308 309 305 300 299 299 299 299 297 298 299 302 299 300 299 300 298 292 291 288 286 288 292 289 290 293 297 296 298 298 298 296 297 297 293 291 290 295 290 291 290 293 296 298 300 301 303 303 302 302 302 299 306 311 316 317 317 322 323
317 318 318 317 316 315 315 316 316 315 314 311 312 310 308 308 307 307 308 301 298 303 302 293 297 305 307 308 307 305 300 298 297 298 298 302 299 299 299 300 299 297 297 296 292 292 289 287 285 284 284 285 284 287 293 296 297 299 298 297 295 294 295 291 291 292 295 292 289 290 288 287 292 299 304 307 308 308 307 303 300 307 313 320 321 321 322
317 318 318 317 316 315 315 315 316 315 314 310 312 309 309 310 309 308 307 308 305 297 297 303 308 308 306 306 308 306 301 298 297 294 294 295 300 299 300 299 299 300 300 296 292 290 292 288 285 283 285 286 288 290 290 293 294 298 296 298 299 297 294 293 293 291 294 292 289 286 285 289 294 299 304 308 309 309 306 297 294 302 309 316 320 320 319
317 318 318 317 316 315 315 315 316 315 314 311 310 309 307 311 311 309 308 308 307 300 305 310 311 309 303 303 305 303 304 302 299 296 294 296 301 300 300 303 299 300 297 293 291 290 288 287 285 285 285 290 289 289 292 288 288 291 294 294 295 296 294 292 293 291 292 290 288 289 291 293 300 301 304 309 309 308 300 290 290 298 310 317 319 318 318
317 318 318 317 316 315 315 315 315 315 314 312 310 308 307 309 307 309 308 307 305 305 307 311 308 303 302 304 303 307 308 304 302 299 294 297 300 301 300 300 298 299 300 295 295 286 286 285 290 287 287 292 294 291 285 290 288 288 289 290 288 290 291 290 287 290 295 296 290 291 295 302 305 305 309 309 310 300 291 286 295 304 314 319 319 318 318
317 317 317 316 315 315 314 314 315 315 315 311 311 308 306 308 311 311 308 304 304 299 304 310 313 310 310 313 308 310 310 308 304 299 296 297 300 303 301 301 301 297 299 296 287 287 287 289 290 286 288 291 293 291 289 288 288 290 290 289 290 290 290 293 289 290 290 288 289 290 293 299 306 309 309 309 301 292 288 297 302 313 318 320 321 319 320
317 317 316 315 315 314 314 313 314 315 315 312 311 305 306 309 312 311 309 305 307 304 308 309 311 307 312 308 304 302 304 304 301 298 293 295 299 302 298 295 298 298 297 291 290 290 290 290 290 291 288 287 291 292 288 290 294 291 290 292 289 291 289 289 287 290 289 287 288 288 287 298 308 308 307 308 299 296 298 307 316 320 320 320 321 321 322
316 316 316 315 314 314 313 313 313 314 315 315 310 308 306 311 311 312 312 308 304 301 301 306 312 312 313 311 311 311 308 303 303 301 299 298 302 294 287 289 295 298 295 292 291 293 292 291 289 291 292 290 293 291 288 285 291 296 296 293 294 295 290 286 288 290 285 281 285 286 293 300 306 307 300 305 305 309 308 314 316 319 319 320 320 320 322
316 315 315 315 314 314 313 312 312 314 315 315 312 310 305 309 311 311 312 310 304 303 304 308 312 311 313 315 315 315 313 312 312 309 303 301 300 301 296 296 296 298 301 296 296 295 295 295 292 291 291 292 291 289 287 285 288 291 296 295 291 297 294 292 290 293 290 288 288 295 298 303 306 308 308 310 312 312 312 316 316 317 317 316 319 318 320
315 315 314 314 314 313 313 312 312 313 315 315 313 309 306 308 309 312 310 305 308 309 310 309 312 314 317 318 319 318 317 318 316 312 309 304 301 300 301 300 302 304 305 299 296 294 295 293 294 291 292 293 293 290 290 288 286 289 293 299 296 302 301 298 301 298 300 300 301 306 305 306 308 310 310 312 313 315 316 317 317 315 316 317 318 318 318
314 314 314 313 313 313 313 312 312 313 314 315 314 310 308 310 310 310 309 307 305 303 308 310 307 304 306 310 316 320 321 319 318 316 314 311 300 299 302 304 307 303 303 303 301 298 296 294 295 293 292 293 291 287 288 290 290 291 295 298 296 299 302 298 298 300 292 293 300 303 305 306 307 309 313 314 315 315 315 316 315 317 319 319 320 319 319
314 313 313 313 313 313 312 311 312 313 315 314 313 314 313 310 310 310 304 300 302 302 299 301 305 312 315 319 321 319 320 321 324 319 314 313 308 302 302 307 308 305 302 304 301 299 298 296 296 295 293 295 296 292 291 292 294 294 292 293 294 299 301 299 295 294 292 296 301 304 306 307 308 307 310 313 315 317 318 317 318 318 319 319 320 321 319
313 313 313 313 312 311 311 311 311 313 314 314 313 310 307 308 311 312 308 306 305 303 299 300 305 316 319 316 314 317 320 320 319 319 315 313 313 310 308 309 305 308 307 307 301 299 298 297 295 293 293 297 297 292 291 292 293 295 294 293 296 299 307 296 297 297 301 302 304 305 305 307 307 309 308 309 312 315 316 317 319 319 320 320 320 321 320
313 312 312 311 310 310 310 311 312 313 314 313 313 312 310 310 312 309 305 306 304 302 303 300 305 311 315 311 315 318 319 318 316 311 314 313 312 312 309 306 305 302 299 300 301 298 296 295 296 297 294 298 299 296 295 297 296 296 296 300 304 301 296 298 300 298 296 298 302 304 301 299 304 309 309 310 312 314 314 315 316 317 318 319 319 320 321
312 312 311 310 310 310 311 313 313 313 313 313 313 312 312 310 310 312 311 308 304 300 302 303 302 306 313 310 316 317 318 320 312 309 312 312 310 308 307 305 303 302 302 300 300 297 294 297 298 298 297 301 298 297 299 299 297 295 296 298 302 297 298 299 297 297 297 301 304 304 301 303 305 308 310 310 311 314 314 313 313 314 316 319 319 318 318
311 310 310 310 311 312 313 313 313 313 313 312 311 310 309 310 311 312 312 312 309 304 303 304 307 306 302 307 318 317 317 312 307 310 310 310 309 308 307 304 303 301 302 300 299 295 293 297 298 298 299 300 298 296 299 295 293 291 293 299 302 300 303 306 304 301 300 303 307 306 307 307 307 309 309 310 311 313 310 310 311 313 315 317 318 318 318
310 310 310 310 312 313 313 313 313 313 313 312 309 305 303 308 310 310 312 312 310 309 303 300 298 303 313 315 314 316 314 313 309 311 310 308 308 309 309 310 313 311 304 302 299 300 297 299 300 301 303 307 300 296 294 291 291 293 297 299 302 303 304 305 304 303 304 305 308 306 307 309 309 309 309 311 313 313 312 311 312 313 314 316 316 315 317
309 310 311 311 312 312 313 313 313 313 313 310 305 299 297 296 305 313 313 313 313 309 307 307 302 310 308 316 316 313 312 311 306 309 310 308 307 308 309 308 309 312 302 301 298 298 300 299 298 301 303 309 302 296 296 293 292 292 300 301 304 305 306 306 304 306 306 309 309 309 310 309 309 310 310 311 312 314 314 314 317 318 315 314 312 313 313
310 310 311 312 312 312 313 313 313 313 312 308 303 302 304 305 308 312 312 312 313 309 305 302 303 301 301 305 307 315 313 311 314 312 310 315 308 308 309 307 308 309 306 298 301 300 299 299 299 302 299 306 303 293 292 290 293 295 300 303 303 302 304 305 307 308 310 312 311 309 308 307 309 310 309 310 311 314 315 314 314 315 316 311 310 311 311
310 311 312 312 312 313 313 313 314 313 310 311 313 313 312 312 312 312 312 311 309 307 309 305 300 301 299 302 307 308 312 309 306 305 308 312 307 304 303 309 305 305 315 306 298 298 301 300 302 301 303 302 299 295 292 293 294 297 299 305 304 305 305 306 308 310 311 312 314 308 305 308 308 307 310 311 312 311 310 309 308 308 308 308 309 309 309
311 311 312 312 313 313 313 313 314 313 312 309 304 306 309 312 311 311 312 311 306 306 307 303 301 299 301 306 301 307 310 302 303 302 302 308 305 301 302 303 304 303 303 300 300 301 302 305 300 299 301 301 297 294 293 293 294 297 301 304 304 305 306 307 307 308 310 309 307 309 311 310 308 308 309 310 308 307 308 306 307 306 305 305 305 306 306
311 312 312 313 313 314 313 313 311 309 305 306 305 308 309 312 311 312 311 307 300 300 301 303 304 299 297 295 297 303 311 306 304 302 300 303 310 304 302 300 297 297 300 303 297 298 298 300 301 300 296 296 297 294 292 292 298 301 303 304 304 306 307 306 306 307 307 306 309 308 309 309 309 308 308 307 306 304 305 305 307 306 304 303 303 303 305
311 312 313 313 313 313 312 311 309 306 303 302 305 313 316 315 313 311 311 310 308 303 301 300 299 295 295 292 293 304 312 303 303 304 303 303 303 305 302 298 296 298 303 297 295 297 298 304 303 295 294 295 293 292 292 296 301 304 305 307 307 309 309 309 308 307 305 307 308 308 308 309 309 306 306 306 304 302 304 304 304 305 304 302 302 302 304
312 312 313 313 311 308 304 305 309 307 305 309 311 316 317 315 313 312 308 306 308 312 304 302 297 297 296 296 298 302 304 300 299 299 299 298 299 302 297 296 292 303 301 296 295 298 299 306 294 293 295 292 293 297 299 301 304 305 305 307 308 306 306 307 309 308 306 305 306 306 307 306 303 303 304 304 302 301 303 304 304 304 302 302 302 302 303
312 313 310 307 305 301 302 304 307 311 314 314 314 311 310 312 305 306 304 299 302 310 301 301 295 298 298 298 297 304 301 298 299 298 299 301 299 299 299 298 297 301 294 295 297 301 300 298 297 293 292 295 297 297 299 301 306 308 309 309 309 307 308 310 309 308 305 303 302 302 304 303 302 301 304 303 301 301 303 304 304 304 304 304 302 303 303
311 309 307 306 303 301 303 309 317 320 313 313 312 307 304 306 302 299 298 300 306 302 302 298 296 295 298 298 300 305 303 299 297 295 297 301 298 296 299 295 298 297 287 291 297 305 298 292 291 293 294 294 298 303 303 303 305 307 309 310 310 308 310 310 311 310 308 308 308 307 307 305 303 301 302 303 302 302 301 301 301 302 303 302 302 304 303
307 303 303 303 301 304 314 316 316 313 311 304 304 301 298 300 293 287 298 297 297 301 301 296 299 297 301 300 299 299 306 301 296 294 296 300 302 297 299 295 295 295 289 287 291 298 294 291 289 291 292 292 297 300 302 305 306 307 307 308 308 308 310 311 311 312 312 310 310 308 308 309 307 304 301 302 301 301 300 300 301 302 302 302 305 304 303
305 305 304 302 308 309 310 312 313 310 306 301 298 299 295 293 295 295 297 291 289 293 303 300 299 298 301 301 300 300 305 311 303 301 299 298 304 302 295 294 298 292 288 287 295 297 291 291 290 289 293 294 298 302 303 304 306 307 307 308 309 309 309 310 311 309 308 306 306 305 305 306 304 303 303 303 303 302 302 302 302 302 302 305 307 303 303
308 308 309 310 310 311 310 310 310 304 303 302 295 289 289 292 296 294 293 289 290 293 294 299 295 296 296 303 302 303 303 310 308 305 298 298 302 296 295 295 294 290 288 291 298 292 292 288 282 286 293 295 298 298 302 305 306 306 306 307 310 310 309 309 308 307 309 308 306 305 304 304 302 303 303 303 302 302 302 303 303 303 304 305 305 303 304
311 311 311 309 308 307 310 298 304 301 290 293 290 290 293 290 291 289 291 295 298 294 293 302 300 300 301 306 302 305 304 308 307 302 298 298 301 297 292 290 291 288 292 296 294 290 290 286 285 292 296 297 297 299 303 306 307 308 308 308 310 310 310 309 309 308 308 308 307 305 304 303 302 303 304 304 303 304 305 307 305 304 304 304 304 304 304
311 309 305 305 302 305 305 290 304 300 293 290 289 286 288 289 291 291 290 290 293 293 294 296 295 296 294 300 298 301 305 305 304 301 300 299 296 295 292 290 291 293 298 294 291 291 290 289 294 296 295 296 300 300 302 305 306 306 306 307 308 309 309 308 308 307 307 306 307 305 304 304 303 303 304 303 304 304 304 305 307 305 305 303 303 303 303
303 301 300 297 294 298 294 288 299 294 289 291 290 289 290 288 289 287 291 295 295 293 296 297 296 297 297 299 301 301 301 300 304 300 297 298 293 292 293 291 293 295 293 288 287 288 289 292 293 294 297 298 300 303 304 305 307 308 308 307 308 308 308 308 308 308 307 307 306 305 303 303 303 303 303 303 304 305 305 305 305 305 303 303 303 303 304
300 293 292 291 291 293 292 290 291 288 292 294 293 293 291 292 291 292 296 299 297 297 297 298 299 299 297 299 295 295 299 300 299 299 298 294 292 292 294 297 296 292 288 287 288 287 290 292 292 295 298 300 301 302 304 306 306 307 308 307 308 308 308 308 308 308 307 306 305 305 304 304 304 303 303 303 305 305 305 306 305 304 303 303 303 304 304
301 305 295 292 290 291 297 288 290 293 295 295 297 297 297 298 298 297 297 299 299 299 299 299 299 299 295 296 299 298 299 299 298 300 297 295 294 294 298 296 291 287 287 285 286 288 289 291 294 296 297 299 300 303 304 306 307 308 309 309 309 308 308 308 308 308 307 306 306 305 304 304 304 304 304 303 303 303 306 305 304 304 305 304 304 304 302
290 297 299 290 288 291 291 295 297 298 300 301 299 299 300 300 298 298 300 300 301 301 300 299 298 297 297 298 300 296 298 297 296 297 298 298 298 293 286 291 289 288 288 287 290 290 290 292 295 298 299 299 302 304 305 306 307 308 308 309 309 308 308 308 307 307 306 305 305 305 305 304 304 304 304 304 304 304 304 303 303 304 304 303 303 303 303
303 296 291 290 296 296 295 299 299 297 299 301 301 299 298 298 298 300 302 302 301 301 302 299 300 296 293 296 296 297 296 297 293 291 297 294 291 288 289 286 287 289 292 292 292 291 293 297 299 299 300 302 304 306 306 308 308 308 309 309 309 309 308 308 308 308 307 306 306 305 305 305 304 304 304 304 304 303 303 303 303 304 304 304 303 303 302
295 293 299 295 297 300 301 301 299 296 299 299 299 298 299 297 298 300 303 302 302 304 304 304 301 296 294 296 291 294 294 296 296 293 293 291 292 292 290 287 287 289 288 290 292 294 295 296 299 302 303 304 306 306 306 307 310 310 309 310 309 309 309 308 307 307 307 306 306 306 305 305 304 304 304 304 304 303 303 303 303 303 303 303 304 303 303
303 298 295 304 300 300 300 294 293 293 297 298 298 297 297 297 298 299 303 303 305 302 301 298 295 293 291 288 287 288 290 297 296 293 291 292 293 292 291 292 291 290 292 295 298 299 300 298 301 302 302 304 306 307 307 308 309 309 309 309 309 308 308 308 308 307 306 306 307 310 305 305 305 305 305 304 303 303 303 305 304 303 302 303 304 303 304
293 292 296 302 304 304 305 305 304 302 302 301 301 301 300 300 302 303 308 306 302 299 296 298 294 288 287 288 291 294 298 294 291 292 292 293 295 293 290 292 294 295 296 296 298 298 301 301 302 305 305 306 307 306 306 307 308 308 308 308 308 308 308 307 307 307 306 306 306 306 305 305 304 304 305 304 304 303 303 303 304 303 303 303 303 303 304
Wind_Speed
17 19 19 19 20 22 22 23 23 24 25 8 7 4 4 5 1 4 2 3 1 3 1 1 1 0 4 1 2 3 2 3 3 1 2 1 1 0 1 0 1 1 0 0 1 1 1 0 1 1 0 2 3 4 7 3 3 3 2 1 1 6 4 5 3 7 6 3 3 4 5 5 5 1 4 3 5 7 6 5 5 3 1 1 1 0 2
17 18 18 19 19 21 22 21 22 22 20 6 6 3 2 1 2 4 2 1 2 3 2 1 1 4 4 1 4 4 3 1 3 2 1 1 1 0 0 1 0 1 0 2 1 0 1 1 1 1 2 1 4 2 4 5 2 1 1 2 1 1 1 3 4 5 6 3 4 7 9 4 1 1 0 2 4 2 2 2 1 1 3 4 4 2 1
16 16 17 18 19 20 21 21 21 21 19 9 2 2 2 3 2 2 6 4 0 0 3 3 1 1 3 2 8 6 1 5 5 2 2 1 1 1 0 0 0 1 1 2 1 1 1 1 1 0 1 2 2 8 8 6 6 2 3 6 3 7 1 4 4 3 3 2 1 1 1 3 5 0 4 3 2 1 3 4 1 1 1 1 2 1 3
16 16 16 17 18 19 20 21 21 21 19 10 0 1 2 3 0 3 2 5 2 2 0 2 1 0 1 4 4 0 3 4 2 5 2 2 1 1 2 2 2 2 1 3 5 5 4 3 0 1 3 3 2 3 6 5 4 4 7 4 5 3 1 5 5 4 2 5 6 7 4 1 2 4 6 7 3 3 2 4 3 5 3 2 1 2 1
15 15 15 15 17 19 20 20 22 22 19 10 0 1 1 1 1 2 3 6 5 1 4 2 2 0 1 0 1 3 3 3 4 3 1 1 1 1 2 0 1 1 3 1 3 3 1 4 3 1 1 2 2 8 3 5 5 3 3 3 5 3 4 1 8 3 1 2 3 9 7 3 1 3 6 8 11 1 4 3 6 1 7 1 0 1 3
14 14 15 15 16 18 19 20 21 22 21 8 0 2 1 1 1 1 1 0 1 1 1 4 1 2 0 3 0 2 4 3 1 2 0 0 1 2 2 5 2 2 3 4 2 2 1 3 1 4 0 2 5 2 3 3 3 3 1 3 3 3 2 2 2 3 1 11 14 16 11 5 2 6 10 12 9 11 8 3 3 0 2 7 4 4 5
14 14 15 16 15 17 19 20 21 23 23 3 1 2 3 1 1 0 2 1 2 3 2 3 1 3 2 2 1 2 2 4 2 1 1 2 2 1 1 2 3 1 0 3 1 1 2 2 1 0 2 2 2 2 2 1 4 2 2 3 1 4 0 2 3 3 5 9 12 7 13 13 8 10 11 11 11 10 12 12 8 8 8 8 10 10 10
14 13 13 14 13 15 17 18 19 22 24 3 3 3 1 3 2 3 4 0 2 3 1 1 1 1 1 0 1 1 2 3 5 2 1 0 1 1 6 1 2 2 3 4 4 2 5 3 1 1 1 2 0 1 3 1 2 2 1 0 1 4 2 3 3 3 3 1 4 5 7 11 10 9 11 11 10 10 10 9 10 12 11 11 9 10 8
15 13 12 13 12 14 15 16 17 21 19 6 5 2 3 2 0 0 2 4 3 1 1 1 0 0 1 1 3 1 2 1 0 3 1 1 3 2 9 7 4 1 4 5 3 5 6 6 1 3 3 1 2 2 2 2 0 2 1 1 0 2 3 3 2 5 2 4 2 8 6 7 11 13 13 12 8 8 6 6 5 3 6 8 8 7 5
14 12 12 13 11 12 13 14 15 16 15 4 2 2 2 2 1 0 1 1 2 2 2 1 1 1 3 2 2 0 5 4 4 2 2 1 1 6 9 5 7 1 4 3 2 5 7 6 5 6 5 1 1 1 0 4 1 2 2 1 2 1 4 2 3 2 4 6 4 7 10 6 5 7 7 8 8 7 8 11 12 8 4 4 4 4 2
14 13 10 10 10 11 12 12 12 12 9 6 4 2 3 4 3 4 1 1 4 2 2 3 1 1 0 2 2 2 5 5 1 4 2 1 1 0 6 9 6 3 3 3 2 6 6 3 1 2 4 2 1 2 1 4 1 2 5 2 1 1 3 4 2 2 2 8 9 7 1 3 3 4 3 4 10 10 9 5 6 8 6 3 4 6 5
14 14 10 9 8 9 10 10 9 8 6 3 0 1 1 2 2 1 1 1 4 2 0 3 2 2 2 3 1 3 7 8 5 3 3 1 1 2 3 2 7 3 2 1 1 3 4 2 6 3 4 7 4 3 3 6 4 2 2 4 3 4 1 1 1 3 1 0 3 3 3 5 4 1 2 1 1 3 8 6 7 7 8 6 7 7 7
14 13 9 8 9 9 9 9 7 7 4 3 3 2 1 3 2 1 0 2 3 1 3 4 2 6 7 8 6 6 7 9 7 7 3 3 1 2 4 2 2 3 2 3 6 5 3 0 1 1 2 5 2 5 9 8 7 7 5 3 7 4 3 2 2 2 2 4 4 2 1 3 4 3 2 2 1 1 1 3 5 5 4 9 4 6 7
13 12 10 8 8 8 9 8 6 6 5 2 4 3 2 2 1 1 0 1 3 1 3 6 7 4 3 4 4 7 7 6 3 2 3 0 4 2 0 2 0 1 6 6 8 4 2 5 2 3 2 5 3 1 2 2 1 6 7 6 2 7 3 3 1 0 2 3 4 2 3 3 2 1 2 2 1 2 2 2 2 2 2 1 3 5 6
13 12 9 8 7 7 7 7 6 5 4 2 3 3 2 2 2 1 1 2 2 3 2 3 1 4 4 5 1 5 4 6 3 1 3 2 1 1 1 2 3 3 1 1 2 5 2 3 2 1 3 2 2 3 2 0 3 2 4 4 4 3 4 4 4 1 4 6 4 1 2 1 4 2 1 2 1 1 2 1 1 1 2 3 1 5 6
12 11 8 7 7 7 7 7 5 5 4 3 3 3 4 3 3 2 1 1 0 3 4 7 1 3 4 5 3 1 2 4 2 2 3 3 1 1 0 1 1 2 5 8 3 4 1 2 2 2 0 1 1 1 0 2 1 1 3 5 4 5 5 5 5 3 3 3 5 3 4 3 2 2 2 1 0 1 3 2 2 1 1 1 3 2 2
12 11 8 7 7 7 7 7 5 4 5 3 4 4 3 1 2 2 2 2 2 6 2 2 2 1 2 6 3 2 1 2 3 1 0 1 0 2 2 2 2 5 2 4 5 2 2 4 2 1 3 1 1 1 0 1 1 2 6 5 8 8 5 4 5 2 1 4 4 2 3 1 1 3 4 2 1 3 3 1 2 2 2 2 1 2 2
11 11 8 7 6 6 6 6 6 5 5 2 2 4 3 2 2 1 2 2 2 5 5 2 1 0 2 0 3 4 0 2 3 1 1 2 1 1 1 2 1 3 2 2 0 4 2 2 0 1 0 2 0 2 0 1 1 0 1 1 2 3 2 6 4 3 1 4 0 1 2 2 2 3 5 4 1 2 2 1 3 2 1 2 3 3 3
11 9 7 6 6 6 6 6 5 6 5 3 4 2 2 2 1 3 2 2 2 5 6 4 2 3 3 2 2 1 0 1 1 1 2 1 0 0 0 0 0 1 7 4 4 2 1 0 0 1 1 0 0 0 1 1 1 0 1 1 1 1 2 0 2 3 2 1 2 1 2 3 1 3 4 3 1 1 1 1 1 4 5 3 3 4 4
10 8 6 6 5 5 5 6 5 6 6 2 1 1 6 3 3 3 2 2 2 6 8 8 4 9 1 2 4 3 4 2 0 1 1 1 2 2 1 1 3 3 1 3 2 1 1 1 1 1 0 1 0 2 2 0 0 1 1 0 1 2 2 0 1 1 2 3 3 1 1 1 1 3 2 1 1 2 2 3 2 3 5 6 5 5 7
9 6 5 6 6 5 5 5 5 6 6 2 2 2 3 1 3 2 2 2 2 5 8 3 2 8 5 6 7 6 3 7 4 1 3 4 2 2 3 4 4 1 2 2 3 1 2 0 1 1 1 2 0 0 4 1 1 1 0 3 1 1 3 1 2 4 2 2 2 2 2 3 1 0 2 2 2 1 3 3 4 3 3 4 5 6 6
8 6 5 6 5 5 4 5 5 7 6 4 2 1 2 2 1 1 1 2 4 6 5 7 6 11 14 14 14 13 14 15 14 6 3 3 1 1 2 2 2 2 2 4 3 2 1 0 1 1 1 0 2 1 1 3 1 1 1 1 1 3 1 5 2 2 1 2 1 2 4 4 3 1 0 0 1 1 2 4 4 4 3 1 5 7 6
7 5 5 6 5 5 4 5 6 6 6 5 1 2 3 4 2 1 1 3 4 6 5 7 7 10 11 13 15 16 15 13 11 6 6 3 3 0 2 1 1 1 1 1 3 5 3 5 1 3 2 1 4 2 1 1 1 1 2 1 1 2 1 2 6 0 1 2 3 1 2 2 4 2 1 1 2 4 4 4 6 2 2 2 6 6 6
6 6 6 5 6 5 5 5 6 6 5 4 1 3 4 3 4 4 2 4 2 6 6 4 1 4 2 3 2 3 7 8 12 12 6 6 2 1 1 2 1 1 1 1 4 3 4 2 2 2 1 2 4 2 4 0 1 3 2 0 2 2 1 1 4 0 3 0 3 4 2 3 3 3 3 4 4 4 2 5 5 5 5 6 4 6 5
6 6 6 6 6 5 5 6 6 6 4 4 4 3 3 3 2 1 2 1 1 1 3 7 6 11 7 6 10 8 8 8 4 8 9 10 9 4 1 1 3 1 4 3 2 6 2 2 1 1 1 2 3 1 1 3 1 3 2 1 0 1 2 7 1 2 2 2 1 2 2 2 1 1 2 4 5 6 6 4 4 5 5 5 5 6 6
5 6 6 6 5 6 6 6 6 6 5 6 6 3 3 4 1 0 3 4 3 3 3 4 8 5 4 8 7 4 3 2 5 8 12 14 14 9 3 1 3 3 4 2 2 2 3 3 3 1 3 1 1 1 3 4 1 1 2 5 6 2 2 2 3 3 0 1 1 1 2 4 5 4 3 1 2 5 5 5 5 5 7 6 6 4 4
6 6 6 4 5 6 6 6 6 6 5 4 4 3 4 5 4 5 4 3 2 3 4 5 6 7 5 13 14 8 6 4 4 7 8 8 8 5 3 5 6 3 4 4 3 5 3 2 1 1 2 0 3 1 3 1 2 2 1 1 1 3 3 1 4 6 2 6 6 4 5 1 1 0 1 3 1 6 6 5 7 5 6 6 8 7 6
7 6 4 5 6 6 7 7 6 6 5 6 4 5 5 6 6 6 6 6 5 2 2 4 6 10 10 8 6 4 10 6 1 5 7 6 6 8 7 6 5 4 2 2 0 2 2 1 0 0 1 0 2 1 1 1 3 4 0 4 3 3 6 6 6 8 5 7 6 4 3 4 3 4 2 2 2 5 8 6 6 4 4 6 9 8 7
5 4 4 6 7 7 7 7 7 7 7 5 4 5 7 8 7 7 8 6 5 3 4 5 6 4 2 6 9 8 5 2 2 5 6 5 5 5 6 4 6 5 4 5 3 3 2 1 1 2 0 2 4 1 1 1 2 3 3 3 3 2 7 10 10 6 1 3 9 7 5 7 4 3 2 3 3 8 7 4 3 5 5 6 7 6 8
4 5 6 7 7 7 7 6 7 8 7 2 2 2 3 1 2 3 6 6 5 3 2 3 4 5 3 4 5 3 3 4 5 6 7 5 5 5 4 7 3 2 3 2 3 1 1 2 0 1 1 0 0 2 2 2 1 3 2 2 5 1 2 1 4 3 1 3 7 3 4 5 4 3 2 2 1 5 9 5 5 6 5 6 8 6 4
6 6 6 6 7 8 7 8 8 7 5 1 1 2 1 1 2 3 5 2 4 3 3 2 5 6 8 3 3 5 2 1 3 7 6 4 4 3 1 4 3 2 3 1 2 0 1 1 1 0 1 0 3 2 4 4 1 2 3 4 4 5 6 7 3 2 4 9 6 4 4 6 5 5 4 2 3 6 8 4 5 7 8 8 7 7 6
7 6 6 7 8 8 9 8 8 5 3 3 3 2 1 2 1 0 2 4 1 3 2 3 4 2 2 4 2 1 2 2 2 2 2 1 2 3 5 4 2 2 3 4 1 1 0 1 1 0 1 0 5 4 3 3 2 2 2 2 2 3 2 4 4 5 5 9 12 10 7 2 3 7 7 4 4 5 10 8 6 8 10 8 6 7 6
8 6 5 8 8 9 9 9 8 5 3 4 7 11 14 14 13 10 3 1 1 2 2 2 3 2 1 4 5 3 1 2 3 3 2 2 1 1 2 4 2 3 3 5 1 1 2 2 0 2 0 1 2 2 2 2 3 2 3 1 1 1 3 2 4 7 9 8 10 12 9 10 7 2 6 7 7 9 10 10 7 7 9 10 10 9 8
6 5 6 8 9 10 9 8 6 6 5 4 6 5 4 10 11 14 4 1 2 2 1 2 2 2 4 4 1 2 1 5 2 1 3 2 1 3 1 2 3 2 4 2 1 1 0 1 1 1 0 1 2 2 0 2 3 2 1 0 1 3 3 4 5 7 7 4 3 2 6 8 6 7 8 8 6 4 7 8 8 10 8 9 8 7 6
6 6 8 10 11 10 9 5 2 2 3 3 4 6 3 7 9 6 9 4 2 0 0 2 1 2 3 3 1 2 1 3 3 0 4 1 1 1 1 3 3 3 2 1 3 1 1 1 3 2 3 1 1 1 3 3 2 2 1 3 2 5 5 5 1 4 3 1 5 8 11 12 12 8 9 7 9 8 9 6 8 11 9 6 6 5 6
7 7 9 9 6 4 2 2 3 3 2 3 4 3 6 4 7 4 6 2 0 2 1 1 0 3 1 1 1 1 1 3 2 1 0 1 2 2 2 2 2 1 0 1 2 0 1 0 1 2 1 1 4 4 4 6 6 6 7 7 8 9 7 10 10 6 3 3 7 8 9 9 13 10 8 8 8 6 8 7 4 7 9 7 6 5 5
6 7 7 4 1 1 3 2 2 3 4 3 1 5 13 14 4 4 2 1 2 1 2 2 1 4 4 2 2 5 2 3 2 2 2 2 3 1 3 2 2 0 1 2 2 1 1 1 2 1 1 3 3 7 7 7 8 7 6 6 9 4 3 4 9 11 9 6 7 7 8 8 7 6 8 8 8 7 8 8 8 9 8 7 5 5 6
6 5 2 1 2 2 2 3 3 4 6 6 3 1 2 3 3 1 2 1 2 3 2 1 3 3 1 1 2 1 1 0 2 2 1 1 2 1 1 3 1 1 1 1 2 2 2 1 0 2 4 6 5 4 5 6 7 7 8 7 8 5 5 9 10 11 10 7 4 4 4 5 7 5 10 8 8 9 9 8 6 5 8 7 6 6 5
5 2 2 2 2 3 1 2 2 3 4 1 1 1 1 1 2 1 3 2 0 2 2 3 5 3 2 1 6 4 1 2 1 2 3 1 2 0 1 1 1 1 1 1 1 1 0 1 1 1 3 3 1 5 4 6 4 4 5 6 8 8 8 10 12 14 13 12 13 13 14 12 11 9 6 9 5 3 4 6 6 6 7 7 6 5 6
2 2 2 2 3 3 1 2 5 1 1 1 1 1 1 0 2 2 0 1 1 3 2 3 4 5 6 7 2 4 0 1 1 1 2 0 1 3 1 1 1 1 1 1 4 1 2 1 1 1 5 3 6 6 3 6 6 6 6 5 6 7 9 12 10 8 10 6 7 11 9 10 11 13 10 8 9 7 4 4 4 5 6 7 6 7 7
2 2 2 2 1 2 2 3 2 1 1 0 1 0 1 0 2 2 1 1 1 3 2 3 0 1 2 1 3 4 4 2 1 2 3 3 1 2 2 1 1 1 0 1 2 1 1 1 0 3 6 5 6 6 4 3 5 4 5 6 8 8 8 7 7 4 5 5 5 4 4 5 6 8 10 12 11 10 9 9 7 7 6 7 7 5 3
1 0 1 2 3 3 3 1 1 1 0 0 1 1 2 1 0 0 1 3 4 2 2 3 2 3 4 7 6 3 2 0 1 1 1 2 1 1 1 0 1 1 1 4 2 2 2 1 1 4 6 7 7 2 2 5 4 5 5 6 8 8 7 7 7 4 5 8 8 7 5 6 8 8 8 9 8 8 8 6 6 5 6 4 4 6 6
2 3 2 2 2 2 1 0 1 1 1 1 1 0 0 1 2 3 2 2 1 2 2 0 1 1 1 1 1 1 3 0 0 1 1 2 0 2 2 1 1 0 2 1 1 2 0 2 2 8 7 7 4 5 7 7 6 7 8 9 9 9 10 9 9 8 5 7 9 9 8 8 8 8 7 8 7 5 4 4 8 8 6 6 6 6 6
2 1 2 3 1 2 1 1 1 1 1 1 2 2 1 1 2 0 0 2 1 2 2 5 4 5 4 2 4 1 0 0 2 2 2 1 2 0 1 1 2 2 0 2 1 2 4 3 7 7 5 4 4 5 6 4 4 4 4 4 4 6 6 5 4 6 4 3 4 4 6 7 6 4 4 6 10 11 6 5 4 6 7 7 7 6 5
2 2 0 1 0 1 1 1 0 1 3 3 2 2 3 4 4 2 4 3 1 2 1 2 5 4 3 2 1 1 1 2 1 1 1 0 2 1 2 2 2 1 1 2 1 1 2 4 5 4 5 6 7 6 5 5 6 9 7 5 6 7 8 9 8 7 7 8 9 8 7 6 7 7 7 7 4 6 11 9 8 8 7 8 7 7 4
2 2 1 1 2 1 1 1 1 1 2 2 3 5 4 5 4 4 5 1 1 1 1 3 2 3 2 1 5 3 1 2 2 0 2 0 2 2 2 0 1 1 1 0 1 4 7 6 4 5 6 7 5 2 5 4 4 4 8 9 10 10 10 10 9 9 9 8 7 8 8 7 8 8 7 5 5 4 4 7 8 9 8 8 7 7 5
1 1 1 1 0 2 1 2 3 4 3 3 5 6 6 6 6 4 2 1 1 2 0 0 3 4 5 2 1 2 1 1 2 1 1 1 0 2 1 1 2 1 3 2 4 4 5 7 7 7 7 6 4 3 4 6 7 8 10 8 9 10 9 9 9 9 8 8 8 8 8 8 7 6 7 6 4 4 6 7 7 8 9 9 7 6 5
1 2 1 1 3 1 3 4 3 3 2 3 3 4 5 1 1 5 4 4 3 2 2 2 1 1 1 1 2 3 1 0 3 1 1 1 1 2 1 0 1 2 2 4 6 5 5 5 5 6 7 5 4 5 5 7 7 8 7 8 10 10 10 10 9 9 9 10 9 9 8 7 8 9 9 9 8 6 7 7 8 6 7 7 6 6 6
1 1 1 2 2 1 2 2 2 4 4 3 2 0 1 2 5 7 5 2 2 3 5 2 2 2 1 1 3 1 1 1 2 2 1 2 2 2 1 2 1 3 4 4 5 5 7 7 7 4 3 3 5 6 6 7 9 10 10 11 12 13 11 12 11 11 9 9 9 9 8 8 8 8 7 8 9 7 6 7 8 7 7 8 7 7 6
0 1 1 1 2 3 3 0 1 3 3 3 1 3 1 3 5 7 2 2 2 3 2 1 1 1 1 1 0 0 1 1 2 1 2 2 2 2 1 2 3 4 2 3 4 6 7 6 3 3 4 4 4 6 6 6 7 8 7 7 7 8 10 11 9 10 10 9 9 10 10 9 8 9 11 11 9 9 7 7 7 8 6 7 8 7 7
1 1 3 2 3 1 2 0 2 2 2 3 2 3 1 2 3 3 1 2 2 4 2 3 2 2 0 1 1 1 3 1 3 3 4 4 2 3 4 5 5 6 6 6 7 7 6 4 5 6 4 5 5 6 6 6 7 6 6 7 7 7 6 8 10 10 8 7 8 9 10 10 9 8 7 9 11 10 8 5 5 7 7 6 6 7 6
1 1 3 3 4 5 4 2 2 4 5 4 3 3 1 3 3 3 0 3 3 4 4 2 2 2 1 2 3 1 0 1 1 1 2 3 2 3 4 6 6 7 7 6 6 6 5 5 5 5 5 5 4 4 4 4 5 5 6 6 7 8 8 8 9 9 9 8 8 8 7 7 8 8 9 10 10 10 9 8 6 6 7 7 6 6 6
Wind_Direction
337 339 340 342 343 343 345 349 349 352 353 7 351 326 11 47 208 274 44 133 57 69 56 300 46 138 235 298 284 240 278 238 241 317 305 318 125 15 55 199 90 277 168 158 88 122 90 152 228 220 193 242 213 242 306 256 97 96 359 24 313 79 46 22 306 314 301 325 312 27 52 75 68 22 106 180 209 198 202 181 188 149 178 70 346 249 262
335 336 338 341 343 344 344 348 350 352 8 341 305 44 69 270 265 319 335 49 78 90 216 316 305 271 305 293 253 208 236 207 312 223 282 147 316 138 137 342 163 136 37 85 87 231 89 245 74 321 209 241 225 298 48 45 44 66 227 135 246 70 318 109 31 357 336 347 346 31 344 16 110 179 204 240 268 295 201 100 36 178 233 175 125 234 300
332 333 336 340 343 344 344 346 348 352 357 2 324 23 290 287 252 244 296 356 64 312 189 144 185 276 285 309 316 332 321 215 202 201 264 159 190 72 336 225 164 23 54 69 77 43 146 136 328 247 285 248 353 354 24 49 70 13 252 145 109 88 140 81 76 338 348 339 344 16 267 268 290 340 348 347 321 187 102 256 249 188 283 89 116 219 259
329 332 335 340 344 343 345 344 347 349 354 351 300 236 35 16 45 305 337 5 34 95 115 98 121 43 337 352 281 144 298 320 305 147 268 159 154 108 155 359 71 55 43 30 20 3 16 91 261 37 316 311 338 271 360 50 107 100 80 52 67 112 63 91 128 145 185 240 260 268 260 349 15 306 8 345 329 234 173 93 91 194 209 72 253 156 94
328 330 334 341 344 342 344 345 345 346 351 357 250 288 113 204 73 342 329 343 40 82 16 47 44 79 160 290 289 316 259 272 315 170 232 43 138 23 49 182 119 281 70 85 63 12 7 359 77 316 266 275 278 318 31 333 58 69 51 41 83 77 66 98 124 139 211 349 325 346 358 87 334 29 3 16 19 10 138 165 219 210 108 275 275 202 101
327 330 334 342 344 342 343 346 345 343 347 354 278 346 5 28 280 100 192 141 240 32 295 39 38 283 236 245 45 264 299 316 291 315 169 92 22 125 355 28 19 190 177 134 79 350 40 13 34 321 221 325 342 63 10 48 313 63 35 355 106 129 111 184 114 106 203 55 24 2 348 9 21 56 45 41 27 43 59 7 246 274 168 199 173 139 104
325 331 335 342 345 342 343 347 347 344 343 19 73 40 304 109 286 228 328 219 250 177 260 341 239 291 199 249 168 288 274 292 236 211 331 25 359 86 132 310 317 12 116 102 135 144 68 336 302 198 334 33 1 14 355 126 354 63 44 24 93 81 234 165 114 96 44 64 72 342 359 331 358 36 48 47 48 51 63 63 66 103 93 105 108 92 73
324 328 334 338 346 343 343 347 351 348 341 350 62 68 4 353 29 316 348 344 261 263 270 167 63 337 320 21 262 202 263 304 323 333 127 74 11 22 98 187 49 67 105 109 107 202 157 152 131 256 133 338 194 216 201 288 337 31 105 75 310 102 283 96 88 70 15 345 67 325 349 325 330 18 39 45 50 45 37 57 65 85 91 103 103 86 71
326 326 332 337 348 344 343 348 356 354 347 46 45 65 37 308 284 113 354 348 275 298 339 20 98 13 326 56 278 347 258 258 324 268 253 172 173 168 154 176 135 23 79 84 134 197 166 170 162 191 154 106 235 122 288 164 358 20 24 14 318 86 217 58 85 88 340 317 43 283 308 295 317 2 21 19 24 56 25 50 24 45 96 113 95 71 63
324 324 330 336 347 343 343 350 359 3 351 85 33 49 308 304 280 8 134 266 318 342 313 343 76 266 230 171 251 293 279 277 3 310 252 181 189 169 151 189 111 31 73 92 184 208 185 195 205 187 212 211 212 251 208 153 171 178 135 269 111 123 134 157 98 89 174 216 160 264 284 248 247 333 351 14 25 49 72 50 44 27 334 72 68 85 47
325 325 327 332 344 341 343 349 0 10 13 38 22 360 350 24 354 341 25 329 317 34 12 306 130 238 182 248 299 260 265 282 282 180 265 18 357 106 143 142 112 159 162 202 220 174 190 177 148 78 67 63 65 23 41 79 84 158 153 107 61 94 164 186 112 126 185 172 183 203 137 32 256 246 222 13 46 30 40 42 20 33 33 57 65 69 69
325 325 324 326 339 341 341 346 356 17 32 49 317 284 316 324 279 189 61 150 265 311 96 240 198 293 335 304 13 287 293 295 277 205 217 216 203 100 84 57 100 88 230 117 58 74 109 75 45 44 56 20 46 11 6 56 18 42 137 139 161 146 66 145 115 117 215 295 20 30 9 236 233 326 327 297 39 50 69 51 38 18 2 67 84 84 75
323 323 319 320 330 337 336 340 348 8 29 6 356 347 330 317 304 336 138 118 248 332 352 294 305 286 280 292 297 269 267 280 283 245 211 137 133 213 222 169 142 207 159 106 68 60 74 269 1 103 301 349 357 20 30 11 2 354 36 62 128 148 115 180 39 88 91 56 48 321 241 252 290 292 305 326 43 63 87 53 40 39 13 331 61 84 82
319 317 314 314 323 329 331 332 346 356 23 11 343 330 317 267 221 171 192 103 279 231 245 296 295 297 309 283 267 282 321 314 278 226 135 283 138 169 297 172 247 114 124 111 61 73 59 38 36 18 315 7 7 73 318 319 338 29 5 349 71 138 97 97 85 343 151 126 119 238 309 316 319 6 32 8 31 344 60 118 310 351 37 306 293 103 107
314 312 308 309 316 321 323 325 349 351 11 359 322 328 307 262 239 254 287 112 245 280 175 240 261 292 289 288 309 343 347 301 41 199 293 314 105 243 210 347 22 87 95 79 30 34 130 108 33 29 331 52 180 220 330 91 311 61 67 43 53 116 166 221 114 275 123 126 78 17 13 266 272 240 271 302 264 151 169 101 316 297 273 261 234 109 103
312 309 301 302 309 313 317 321 353 347 2 341 292 325 294 228 212 286 275 290 269 300 266 223 305 315 312 287 291 278 302 314 306 323 356 338 287 335 357 74 37 88 50 70 87 95 71 101 181 100 194 219 223 77 240 344 4 320 40 56 75 39 76 105 120 156 72 86 126 183 163 238 212 249 266 300 264 168 110 71 346 262 214 277 237 161 129
308 305 300 296 302 309 309 317 337 351 353 41 338 327 312 332 209 225 236 236 205 245 258 253 242 261 340 311 2 27 51 309 323 4 14 19 160 274 292 351 351 62 78 77 11 70 36 54 96 143 273 211 96 245 85 63 75 325 330 10 29 38 9 33 48 48 58 127 106 181 201 146 220 248 285 313 26 132 78 55 275 260 279 331 10 167 122
304 302 298 296 300 306 308 314 333 348 355 46 313 313 273 256 225 209 232 243 237 275 253 240 90 214 212 230 286 275 340 5 10 9 196 257 343 10 295 6 50 19 93 83 41 65 63 112 116 159 183 248 167 83 107 173 102 213 329 21 344 353 357 45 147 143 74 81 257 339 315 265 270 269 294 327 160 109 75 189 232 234 127 116 138 151 168
302 301 295 293 296 298 305 313 327 346 356 24 320 285 268 244 200 201 225 252 188 249 263 289 223 229 253 302 248 276 266 252 212 304 296 60 259 273 79 141 123 230 8 140 74 93 120 349 61 120 137 301 25 192 144 57 213 329 83 27 356 6 83 15 65 50 107 164 117 203 251 245 230 273 281 269 81 77 220 235 214 139 109 121 137 138 134
295 290 287 289 290 286 295 307 325 341 335 16 21 291 272 278 263 223 288 257 239 261 284 275 263 263 287 305 303 321 332 3 205 153 152 146 310 10 35 37 322 79 19 56 62 212 99 197 175 128 19 187 253 164 69 18 64 158 171 213 128 202 105 196 130 172 62 38 75 4 125 202 101 317 27 16 94 230 197 163 71 98 119 120 107 108 111
290 279 280 283 283 284 292 303 311 319 324 327 177 322 331 70 38 354 353 291 253 296 294 285 231 258 262 252 233 232 212 235 216 253 238 211 225 88 128 200 200 125 200 134 150 228 157 110 230 171 218 132 259 54 187 174 352 288 143 197 142 190 84 266 266 189 149 107 133 189 209 245 284 162 171 240 189 221 161 126 98 50 89 87 84 74 90
278 269 272 278 279 282 286 292 298 308 319 311 222 178 254 255 270 246 326 333 256 233 250 287 289 271 262 256 252 243 240 241 242 211 244 287 299 189 207 137 177 141 185 126 55 26 347 144 76 81 179 120 23 101 140 85 155 268 283 90 26 207 186 179 154 214 123 194 214 246 231 235 275 188 221 216 304 108 157 102 110 121 60 37 91 101 95
268 268 274 273 273 274 284 284 285 296 312 322 305 234 285 304 272 223 274 268 247 252 264 277 276 271 267 255 241 236 236 234 244 225 185 166 296 339 186 143 258 206 96 100 169 160 182 128 188 158 102 176 154 137 10 112 202 269 109 254 177 339 141 169 87 155 245 218 194 264 343 348 342 357 340 77 37 42 82 105 105 53 139 135 124 124 120
249 259 267 266 264 270 276 277 274 289 309 315 303 296 293 281 298 326 262 215 254 300 284 230 303 281 212 294 295 218 213 228 221 221 193 171 168 278 314 244 150 58 25 214 172 134 190 115 179 137 120 213 91 77 136 239 245 198 101 86 320 258 127 60 102 190 65 95 326 22 321 317 349 4 47 61 60 41 65 84 85 121 112 101 97 119 121
240 251 255 258 267 275 281 277 282 293 300 296 298 281 272 272 244 286 357 307 270 319 296 310 249 247 279 292 279 273 234 216 186 187 181 193 204 170 188 200 175 147 200 185 112 62 47 118 167 127 105 241 127 217 225 113 291 149 77 260 359 279 150 75 93 88 107 202 238 289 286 273 300 327 65 58 47 49 50 77 103 107 98 104 120 111 99
245 250 248 256 270 281 276 273 279 288 294 289 300 281 276 265 211 42 312 287 256 219 274 295 284 310 340 335 302 253 281 220 199 181 185 193 204 202 186 186 53 35 98 101 86 104 120 57 87 114 126 241 105 131 201 202 175 149 136 214 195 164 89 149 169 93 320 326 293 279 358 28 15 20 48 97 101 94 60 62 80 88 94 89 70 65 115
246 249 250 272 278 274 270 269 278 291 298 284 275 244 256 268 221 219 209 237 241 241 219 258 279 298 3 318 287 297 271 225 209 185 191 194 192 192 164 115 102 42 59 41 36 116 69 100 114 230 156 177 130 161 144 110 133 147 159 260 164 77 76 153 80 88 165 182 191 168 110 245 282 17 144 119 122 104 93 74 64 69 88 89 87 71 69
241 245 261 263 260 257 266 283 298 310 308 306 284 260 247 253 234 206 208 219 232 264 293 296 302 295 306 265 260 259 284 281 236 158 157 160 160 150 124 120 111 88 56 94 44 44 59 111 243 195 124 236 80 53 52 119 75 48 96 239 189 140 188 151 151 158 213 228 202 163 133 125 203 184 187 178 158 105 96 94 98 78 85 109 107 99 74
238 249 254 254 256 266 279 293 297 296 296 303 281 276 261 240 241 208 207 205 205 255 273 269 273 308 297 293 312 306 296 324 151 145 123 127 118 104 117 115 117 139 94 71 94 102 123 183 150 131 108 196 101 178 104 156 146 198 237 208 164 232 176 173 179 162 250 183 156 166 148 157 190 214 189 142 150 110 97 94 97 106 106 99 93 101 111
234 236 241 251 259 276 291 294 291 293 299 298 312 307 291 145 129 206 187 184 182 254 275 340 325 262 310 314 287 294 312 2 116 111 116 118 98 95 94 104 78 77 97 131 154 151 217 143 281 272 297 340 163 166 95 159 135 240 261 247 235 302 204 183 150 93 125 175 145 157 135 114 98 128 130 126 117 116 115 121 120 100 76 91 96 87 83
233 239 248 259 273 279 277 281 288 291 290 231 54 310 5 264 26 72 127 195 175 231 275 233 254 311 316 254 258 290 301 49 90 97 76 82 96 85 356 70 60 92 81 26 48 145 128 79 107 85 348 95 116 121 167 138 202 308 257 209 206 190 190 194 166 132 134 111 102 93 88 111 120 85 51 78 101 112 102 100 97 104 108 89 85 94 89
233 240 253 267 277 281 282 283 284 283 247 240 217 226 78 65 33 32 24 15 45 233 246 286 312 315 274 305 276 272 18 47 70 62 25 42 39 17 31 60 115 40 120 124 153 83 7 215 112 192 118 92 82 102 87 93 144 239 246 228 232 210 198 153 123 95 114 125 105 83 93 106 205 146 164 182 126 102 109 108 101 97 92 92 86 76 78
238 242 256 275 278 279 283 286 288 284 231 267 270 273 273 268 256 256 263 211 276 239 278 280 246 260 297 252 310 333 33 66 31 29 89 329 145 30 49 3 27 49 15 87 21 129 204 133 148 99 254 41 105 118 101 160 211 237 213 211 98 132 161 175 129 150 155 164 144 145 178 183 199 235 132 136 133 124 117 114 116 109 102 96 91 85 73
250 264 276 273 276 278 281 281 273 270 280 270 287 259 231 226 240 244 201 119 286 262 278 235 304 324 266 318 36 277 38 140 211 37 99 346 159 70 110 41 2 84 349 81 251 76 327 85 137 197 332 27 39 95 240 260 243 259 274 85 95 88 102 108 134 155 176 184 6 81 139 128 103 106 108 114 104 98 113 121 119 101 98 102 104 108 113
254 263 268 276 278 277 276 268 279 239 253 264 258 261 250 207 198 179 165 166 138 359 78 264 217 296 321 348 54 272 297 99 146 352 122 272 19 140 201 69 331 86 272 85 50 86 143 209 179 109 213 340 53 192 243 244 267 242 156 124 143 118 89 91 165 177 155 43 95 111 125 127 122 130 139 138 135 141 127 126 128 118 110 115 126 131 119
257 268 275 281 278 261 274 221 217 224 226 235 232 271 255 191 142 142 170 184 316 311 215 260 56 215 174 229 161 206 34 59 349 359 155 121 36 24 95 110 83 270 231 73 204 4 160 312 84 238 310 102 220 188 227 195 187 197 190 186 188 170 178 176 158 147 91 100 120 126 130 141 141 149 145 145 141 139 131 119 104 113 123 127 131 133 115
264 280 298 298 288 229 231 229 166 197 217 178 151 17 100 109 81 100 96 294 242 212 270 297 310 248 180 235 266 278 58 164 350 42 355 66 160 308 53 47 136 269 44 1 8 191 245 38 98 113 188 178 247 228 215 183 177 181 207 204 188 197 92 101 132 122 102 98 116 136 142 130 120 133 138 147 152 148 132 140 152 137 140 146 154 141 148
273 280 228 227 216 253 228 205 203 222 233 248 251 48 223 278 122 172 130 199 244 169 257 129 241 264 332 69 275 252 67 235 49 122 340 242 89 21 356 98 209 101 153 240 249 184 92 44 119 165 259 246 249 257 233 211 216 204 193 173 176 174 147 138 137 120 113 98 101 116 98 124 143 172 151 159 155 166 172 160 164 155 145 150 158 150 128
258 219 222 220 252 232 249 118 290 272 134 100 116 179 167 180 76 73 242 216 56 222 255 159 242 202 175 262 281 294 147 154 50 32 123 269 115 299 354 97 293 72 336 20 279 101 245 325 350 24 259 287 285 245 218 209 220 213 190 185 165 161 153 158 160 153 159 175 182 179 166 168 171 189 185 161 167 135 140 154 151 157 152 151 150 150 141
145 188 212 202 225 246 314 60 9 27 138 122 205 157 126 175 103 251 227 94 275 264 144 242 209 183 189 207 210 299 332 67 91 252 151 185 330 140 230 95 267 100 212 146 247 36 122 223 276 51 285 260 240 251 219 195 197 204 169 159 156 168 169 166 184 186 175 170 167 178 180 173 167 160 166 165 157 149 154 182 169 158 156 158 159 153 159
194 224 217 252 327 321 300 312 310 129 123 108 52 339 85 169 218 185 150 189 201 229 195 187 121 251 259 110 145 225 288 92 166 144 117 114 239 85 70 138 229 94 326 257 275 76 77 94 7 188 239 228 221 234 203 190 206 187 173 164 165 171 180 182 173 145 115 105 116 133 129 132 148 160 162 164 165 166 170 169 172 173 159 155 165 173 150
139 208 328 293 254 255 287 220 164 105 300 182 124 247 201 209 21 6 146 153 228 231 260 162 231 186 219 184 194 171 283 172 122 113 95 91 307 112 160 167 7 109 234 236 139 65 81 205 274 281 252 247 244 258 189 210 214 168 184 172 168 169 173 168 158 163 155 148 158 157 154 147 151 160 161 159 163 161 157 155 158 169 170 151 121 122 131
301 299 282 302 289 232 212 56 246 124 136 141 80 264 215 166 202 172 227 231 279 148 261 206 227 183 286 102 28 190 193 236 321 324 72 143 290 58 89 33 70 115 235 346 70 71 137 221 234 250 251 258 244 216 213 207 196 187 186 178 177 177 171 170 170 166 170 156 156 159 160 156 165 172 168 155 139 134 145 163 168 157 150 139 135 132 134
222 240 237 204 222 274 128 186 219 127 265 129 142 203 187 291 295 69 356 268 225 245 207 155 217 147 195 243 146 199 345 327 73 98 44 333 86 97 74 144 215 242 56 55 58 174 217 224 213 234 248 267 264 235 219 213 188 163 167 190 164 152 156 146 121 115 115 101 118 135 143 146 136 129 142 156 156 157 154 125 123 130 132 126 124 129 138
188 177 273 329 262 258 84 286 140 181 200 224 164 198 173 189 228 179 199 246 132 228 258 144 137 148 185 239 56 340 126 180 311 110 239 8 50 345 119 238 234 68 144 211 290 309 327 269 275 277 269 264 251 217 203 193 178 178 174 156 164 163 158 161 166 155 156 157 155 147 150 151 145 154 163 171 177 160 151 152 153 139 138 128 126 127 147
172 166 138 137 233 270 164 210 159 229 267 170 206 199 176 222 171 221 249 174 240 320 150 198 161 140 178 237 149 203 204 113 101 128 134 59 108 233 237 211 90 79 18 41 196 219 220 233 246 240 234 233 248 198 179 186 161 127 130 170 188 177 179 167 168 167 165 155 155 155 157 159 158 156 167 172 155 153 141 137 146 141 136 127 135 140 145
283 246 121 117 159 265 170 191 216 207 182 195 212 191 197 209 208 210 236 182 240 222 165 96 153 176 157 210 154 336 38 74 122 254 79 90 160 284 342 134 220 167 159 227 232 244 258 251 239 240 242 243 240 195 172 170 173 176 186 174 168 176 172 168 166 165 166 155 153 153 156 165 166 155 135 124 121 130 136 138 140 142 137 141 146 133 133
198 247 136 166 223 177 185 234 205 273 242 212 227 199 225 192 299 279 243 209 222 123 116 102 84 8 322 302 92 181 199 44 89 336 86 144 23 28 4 357 256 246 192 169 224 221 231 244 232 236 235 216 192 178 180 180 186 185 175 169 174 171 173 169 168 163 156 159 161 162 161 157 150 153 159 152 141 144 148 145 139 128 117 118 124 131 132
250 147 162 215 225 233 243 251 177 246 254 244 228 232 148 178 225 247 246 170 174 213 183 139 211 115 243 210 134 119 221 266 110 205 105 71 109 213 193 216 204 243 254 185 218 216 221 231 230 229 221 191 203 195 197 189 184 181 178 174 180 180 173 173 172 166 163 160 158 155 160 160 152 146 138 136 139 150 152 141 134 132 136 137 140 141 142
99 324 292 255 298 269 244 218 148 259 274 290 303 262 211 209 245 259 189 192 218 117 73 42 34 131 246 119 111 5 236 228 153 102 114 166 185 173 106 254 226 195 250 240 225 241 238 244 234 234 230 208 204 194 192 193 189 190 192 180 163 162 173 166 157 159 164 164 163 161 152 146 151 152 156 160 153 139 137 139 138 138 143 147 145 151 155
253 202 242 235 231 249 36 174 181 239 307 278 238 249 213 234 228 260 205 155 103 90 88 174 199 123 91 37 75 131 238 172 114 170 156 188 179 146 194 216 236 212 233 230 222 237 240 223 195 227 226 226 215 202 197 189 188 187 172 165 165 159 153 157 156 155 157 156 149 143 152 165 165 152 134 123 128 131 129 136 144 148 150 154 156 154 157
181 203 246 244 224 248 250 281 296 250 247 258 283 259 179 276 243 251 232 104 124 150 197 171 109 88 77 192 216 196 61 54 122 113 179 251 166 167 209 196 222 224 219 236 253 244 243 231 217 222 222 227 224 206 182 170 159 153 158 161 155 154 155 155 156 154 148 147 155 152 144 134 129 131 134 131 130 134 145 161 171 163 158 161 167 165 161